When you browse on this site, cookies collect data to enhance your experience and personalize the content and advertising you see.
Visit our Privacy Policy to learn more. By continuing to use the site, you agree to this use of cookies and data.
  • In Latvia
  • List of Countries
  • For 7 days
  • Water Temperature
  • Weather Map
  • Weather Widgets
  • user-avatar
    Login

    Hourly Weather Aglona

    Today, 22 October, Tuesday

    Time Temperature Precipitation Wind Pressure Humidity
    00:00 +9°C° 0 mm 1 mps 751 mmHg 96%
    01:00 +10°C° 0 mm 1 mps 751 mmHg 95%
    02:00 +10°C° 0 mm 1 mps 752 mmHg 95%
    03:00 +10°C° 0 mm 1 mps 751 mmHg 95%
    04:00 +10°C° 0 mm 1 mps 751 mmHg 94%
    05:00 +9°C° 0 mm 2 mps 751 mmHg 94%
    06:00 +10°C° 0 mm 2 mps 751 mmHg 95%
    07:00 +10°C° 0 mm 2 mps 751 mmHg 95%
    08:00 +10°C° 0 mm 3 mps 750 mmHg 96%
    09:00 +11°C° 0 mm 3 mps 750 mmHg 94%
    10:00 +12°C° 0 mm 3 mps 750 mmHg 92%
    11:00 +13°C° 0 mm 4 mps 749 mmHg 89%
    12:00 +14°C° 0 mm 4 mps 749 mmHg 85%
    13:00 +15°C° 0 mm 4 mps 749 mmHg 81%
    14:00 +18°C° 0 mm 4 mps 749 mmHg 77%
    15:00 +15°C° 0 mm 4 mps 749 mmHg 82%
    16:00 +14°C° 0 mm 3 mps 749 mmHg 86%
    17:00 +13°C° 0 mm 3 mps 749 mmHg 91%
    18:00 +13°C° 0 mm 3 mps 749 mmHg 91%
    19:00 +12°C° 0 mm 3 mps 749 mmHg 92%
    20:00 +12°C° 0 mm 3 mps 749 mmHg 93%
    21:00 +11°C° 0 mm 3 mps 749 mmHg 93%
    22:00 +11°C° 0 mm 3 mps 749 mmHg 94%
    23:00 +11°C° 0 mm 3 mps 749 mmHg 94%

    Tomorrow, 23 October, Wednesday

    Time Temperature Precipitation Wind Pressure Humidity
    00:00 +11°C° 0 mm 3 mps 749 mmHg 93%
    01:00 +11°C° 0 mm 3 mps 749 mmHg 91%
    02:00 +11°C° 0 mm 3 mps 749 mmHg 90%
    03:00 +11°C° 0 mm 3 mps 749 mmHg 89%
    04:00 +11°C° 0 mm 3 mps 749 mmHg 89%
    05:00 +11°C° 0 mm 3 mps 748 mmHg 88%
    06:00 +10°C° 0 mm 3 mps 748 mmHg 89%
    07:00 +10°C° 0 mm 2 mps 748 mmHg 89%
    08:00 +10°C° 0 mm 2 mps 749 mmHg 90%
    09:00 +10°C° 0 mm 3 mps 749 mmHg 87%
    10:00 +11°C° 0 mm 3 mps 749 mmHg 84%
    11:00 +11°C° 0 mm 3 mps 749 mmHg 81%
    12:00 +11°C° 0 mm 3 mps 749 mmHg 81%
    13:00 +11°C° 0 mm 3 mps 749 mmHg 81%
    14:00 +11°C° 0 mm 3 mps 749 mmHg 80%
    15:00 +11°C° 0 mm 3 mps 749 mmHg 83%
    16:00 +10°C° 0 mm 2 mps 749 mmHg 85%
    17:00 +9°C° 0 mm 2 mps 749 mmHg 88%
    18:00 +9°C° 0 mm 2 mps 749 mmHg 90%
    19:00 +8°C° 0 mm 2 mps 750 mmHg 92%
    20:00 +8°C° 0 mm 2 mps 750 mmHg 94%
    21:00 +7°C° 0 mm 2 mps 750 mmHg 94%
    22:00 +7°C° 0 mm 2 mps 750 mmHg 95%
    23:00 +7°C° 0 mm 2 mps 750 mmHg 95%

    Day after tomorrow, 24 October, Thursday

    Time Temperature Precipitation Wind Pressure Humidity
    00:00 +6°C° 0 mm 2 mps 750 mmHg 96%
    01:00 +6°C° 0 mm 2 mps 750 mmHg 97%
    02:00 +6°C° 0 mm 1 mps 750 mmHg 97%
    03:00 +6°C° 0 mm 1 mps 750 mmHg 97%
    04:00 +5°C° 0 mm 2 mps 750 mmHg 98%
    05:00 +5°C° 0 mm 2 mps 750 mmHg 98%
    06:00 +6°C° 0 mm 1 mps 750 mmHg 98%
    07:00 +6°C° 0 mm 1 mps 751 mmHg 98%
    08:00 +6°C° 0 mm 1 mps 751 mmHg 98%
    09:00 +7°C° 0 mm 1 mps 751 mmHg 93%
    10:00 +7°C° 0 mm 2 mps 751 mmHg 88%
    11:00 +8°C° 0 mm 2 mps 751 mmHg 83%
    12:00 +9°C° 0 mm 2 mps 751 mmHg 79%
    13:00 +11°C° 0 mm 1 mps 751 mmHg 76%
    14:00 +12°C° 0 mm 1 mps 751 mmHg 73%
    15:00 +11°C° 0 mm 1 mps 751 mmHg 78%
    16:00 +10°C° 0 mm 1 mps 751 mmHg 83%
    17:00 +9°C° 0 mm 1 mps 750 mmHg 87%
    18:00 +8°C° 0 mm 1 mps 750 mmHg 88%
    19:00 +8°C° 0 mm 1 mps 750 mmHg 89%
    20:00 +7°C° 0 mm 2 mps 750 mmHg 90%
    21:00 +7°C° 0 mm 2 mps 750 mmHg 90%
    22:00 +6°C° 0 mm 2 mps 750 mmHg 89%
    23:00 +6°C° 0 mm 2 mps 750 mmHg 89%

    25 October, Friday

    Time Temperature Precipitation Wind Pressure Humidity
    00:00 +5°C° 0 mm 3 mps 750 mmHg 88%
    01:00 +5°C° 0 mm 3 mps 749 mmHg 86%
    02:00 +5°C° 0 mm 3 mps 749 mmHg 85%
    03:00 +5°C° 0 mm 3 mps 749 mmHg 86%
    04:00 +5°C° 0 mm 3 mps 748 mmHg 87%
    05:00 +5°C° 0 mm 3 mps 748 mmHg 88%
    06:00 +6°C° 0 mm 4 mps 747 mmHg 89%
    07:00 +6°C° 0 mm 4 mps 747 mmHg 90%
    08:00 +7°C° 0 mm 4 mps 747 mmHg 92%
    09:00 +8°C° 0 mm 5 mps 747 mmHg 88%
    10:00 +10°C° 0 mm 5 mps 746 mmHg 84%
    11:00 +13°C° 0 mm 5 mps 746 mmHg 81%
    12:00 +13°C° 0 mm 5 mps 746 mmHg 79%
    13:00 +14°C° 0 mm 5 mps 746 mmHg 78%
    14:00 +15°C° 0 mm 4 mps 746 mmHg 77%
    15:00 +14°C° 0 mm 4 mps 746 mmHg 82%
    16:00 +13°C° 0 mm 3 mps 746 mmHg 86%
    17:00 +12°C° 0 mm 3 mps 746 mmHg 91%
    18:00 +12°C° 0 mm 3 mps 746 mmHg 91%
    19:00 +12°C° 0 mm 3 mps 746 mmHg 92%
    20:00 +12°C° 0 mm 3 mps 747 mmHg 92%
    21:00 +12°C° 0 mm 3 mps 747 mmHg 89%
    22:00 +12°C° 0 mm 4 mps 747 mmHg 87%
    23:00 +12°C° 0 mm 4 mps 747 mmHg 85%

    26 October, Saturday

    Time Temperature Precipitation Wind Pressure Humidity
    00:00 +11°C° 0 mm 4 mps 747 mmHg 88%
    01:00 +10°C° 0 mm 3 mps 747 mmHg 90%
    02:00 +9°C° 0 mm 3 mps 748 mmHg 93%
    03:00 +9°C° 0 mm 3 mps 747 mmHg 94%
    04:00 +9°C° 0 mm 3 mps 747 mmHg 95%
    05:00 +9°C° 0 mm 3 mps 747 mmHg 95%
    06:00 +8°C° 0 mm 3 mps 747 mmHg 95%
    07:00 +8°C° 0 mm 3 mps 747 mmHg 96%
    08:00 +8°C° 0 mm 3 mps 747 mmHg 96%
    09:00 +9°C° 0 mm 3 mps 747 mmHg 90%
    10:00 +10°C° 0 mm 3 mps 747 mmHg 84%
    11:00 +11°C° 0 mm 4 mps 746 mmHg 77%
    12:00 +12°C° 0 mm 4 mps 746 mmHg 78%
    13:00 +13°C° 0 mm 5 mps 745 mmHg 79%
    14:00 +13°C° 0 mm 5 mps 744 mmHg 80%
    15:00 +13°C° 0 mm 5 mps 743 mmHg 81%
    16:00 +13°C° 0 mm 4 mps 743 mmHg 82%
    17:00 +13°C° 0 mm 4 mps 742 mmHg 83%
    18:00 +12°C° 0 mm 4 mps 742 mmHg 83%
    19:00 +12°C° 0 mm 5 mps 742 mmHg 84%
    20:00 +12°C° 0 mm 5 mps 742 mmHg 84%
    21:00 +12°C° 0.3 mm 4 mps 742 mmHg 86%
    22:00 +12°C° 0.3 mm 4 mps 742 mmHg 88%
    23:00 +12°C° 0.3 mm 4 mps 741 mmHg 90%

    27 October, Sunday

    Time Temperature Precipitation Wind Pressure Humidity
    00:00 +11°C° 0.5 mm 4 mps 741 mmHg 88%
    01:00 +10°C° 0.5 mm 4 mps 741 mmHg 86%
    02:00 +7°C° 0.5 mm 4 mps 741 mmHg 84%
    03:00 +7°C° 0.1 mm 4 mps 741 mmHg 83%
    04:00 +7°C° 0.1 mm 3 mps 741 mmHg 82%
    05:00 +7°C° 0.1 mm 3 mps 741 mmHg 81%
    06:00 +7°C° 0.1 mm 3 mps 741 mmHg 81%
    07:00 +7°C° 0.1 mm 3 mps 741 mmHg 82%
    08:00 +5°C° 0.1 mm 3 mps 741 mmHg 82%
    09:00 +6°C° 0.1 mm 4 mps 741 mmHg 78%
    10:00 +6°C° 0.1 mm 5 mps 741 mmHg 74%
    11:00 +7°C° 0.1 mm 5 mps 741 mmHg 69%
    12:00 +7°C° 0 mm 5 mps 741 mmHg 68%
    13:00 +7°C° 0 mm 5 mps 741 mmHg 67%
    14:00 +7°C° 0 mm 5 mps 740 mmHg 66%
    15:00 +7°C° 0.3 mm 6 mps 740 mmHg 71%
    16:00 +5°C° 0.3 mm 6 mps 740 mmHg 76%
    17:00 +5°C° 0.3 mm 6 mps 739 mmHg 81%
    18:00 +4°C° 1.3 mm 6 mps 739 mmHg 82%
    19:00 +4°C° 1.3 mm 6 mps 739 mmHg 84%
    20:00 +4°C° 1.3 mm 6 mps 738 mmHg 86%
    21:00 +4°C° 0.5 mm 6 mps 738 mmHg 84%
    22:00 +4°C° 0.5 mm 6 mps 738 mmHg 82%
    23:00 +4°C° 0.5 mm 6 mps 737 mmHg 79%

    28 October, Monday

    Time Temperature Precipitation Wind Pressure Humidity
    00:00 +4°C° 0.1 mm 7 mps 737 mmHg 79%
    01:00 +4°C° 0.1 mm 7 mps 737 mmHg 79%
    02:00 +4°C° 0.1 mm 7 mps 737 mmHg 79%
    03:00 +3°C° 0 mm 7 mps 738 mmHg 81%
    04:00 +3°C° 0 mm 6 mps 738 mmHg 82%
    05:00 +3°C° 0 mm 6 mps 738 mmHg 84%
    06:00 +3°C° 0.6 mm 5 mps 739 mmHg 86%
    07:00 +4°C° 0.6 mm 4 mps 740 mmHg 88%
    08:00 +3°C° 0.6 mm 3 mps 740 mmHg 90%
    09:00 +4°C° 0.2 mm 3 mps 740 mmHg 87%
    10:00 +4°C° 0.2 mm 3 mps 741 mmHg 84%
    11:00 +5°C° 0.2 mm 3 mps 741 mmHg 80%
    12:00 +5°C° 0.3 mm 3 mps 741 mmHg 80%
    13:00 +5°C° 0.3 mm 4 mps 741 mmHg 79%
    14:00 +5°C° 0.3 mm 4 mps 741 mmHg 79%
    15:00 +5°C° 0.2 mm 3 mps 741 mmHg 81%
    16:00 +4°C° 0.2 mm 3 mps 741 mmHg 83%
    17:00 +4°C° 0.2 mm 2 mps 740 mmHg 85%
    18:00 +3°C° 0 mm 3 mps 740 mmHg 86%
    19:00 +3°C° 0 mm 3 mps 740 mmHg 88%
    20:00 +3°C° 0 mm 3 mps 740 mmHg 89%
    21:00 +3°C° 0.2 mm 3 mps 739 mmHg 90%
    22:00 +3°C° 0.2 mm 3 mps 739 mmHg 90%
    23:00 +4°C° 0.2 mm 3 mps 738 mmHg 91%
    Show more